Regional Weather Roundup
Issued by NWS Goodland, KS

Home | Current Version | Previous Version | Graphics & Text | Print | Product List | Glossary On
Versions: 1 2 3 4 5 6 7 8 9 10 11 12 13 14 15 16 17 18 19 20 21 22 23 24 25 26 27 28 29 30 31 32 33 34 35 36 37 38 39 40 41 42 43 44 45 46 47 48 49 50
000
ASUS43 KGLD 171208
RWRGLD

GOODLAND FORECAST AREA HOURLY WEATHER ROUNDUP
NATIONAL WEATHER SERVICE GOODLAND KS
600 AM MDT WED SEP 17 2014

...OFFICIAL OBSERVATIONS...

CITY           SKY/WX    TMP DP  RH WIND       PRES   REMARKS
GOODLAND KS    CLEAR     53  49  86 CALM      29.98S
HILL CITY KS   FOG       56  55  97 CALM      29.92S VSB 1/4
IMPERIAL NEB   CLEAR     48  46  93 W7        29.96R
MCCOOK NEB     FOG       47  47 100 W3        29.94S VSB 1/4
AKRON CO       CLEAR     54  42  64 NW9       30.03S
BURLINGTON CO  CLEAR     50  46  86 W6        30.01S
LIMON CO       CLEAR     45  41  86 N5        30.10R
$$

...UNOFFICIAL OBSERVATIONS...

CITY           SKY/WX    TMP DP  RH WIND       PRES   REMARKS
COLBY KS       CLEAR     50  50 100 W5        29.97S
GOVE KS          N/A     54  32  43 MISG        N/A
NORTON KS      CLEAR     50  48  93 N3        29.92  FOG
SHARON SPRINGS   N/A     56  51  84 CALM        N/A
WAKEENEY KS      N/A     57  53  88 MISG        N/A
TRENTON NEB      N/A     51  32  48 CALM        N/A
YUMA CO          N/A     49  45  85 CALM        N/A
$$



USA.gov is the U.S. government's official web portal to all federal, state and local government web resources and services.